TimeEDT,TemperatureF,Dew PointF,Humidity,Sea Level PressureIn,VisibilityMPH,Wind Direction,Wind SpeedMPH,Gust SpeedMPH,PrecipitationIn,Events,Conditions,WindDirDegrees,DateUTC
12:15 AM,66.6,61.7,84,29.98,10.0,West,3.5,-,N/A,,Clear,260,2013-08-02 04:15:00
12:35 AM,64.4,61.7,91,29.97,10.0,West,3.5,-,N/A,,Clear,270,2013-08-02 04:35:00
12:55 AM,64.9,61.0,87,29.97,10.0,West,3.5,-,N/A,,Clear,260,2013-08-02 04:55:00
1:15 AM,63.9,60.8,90,29.97,10.0,West,3.5,-,N/A,,Clear,270,2013-08-02 05:15:00
1:35 AM,64.4,60.8,88,29.98,10.0,West,5.8,-,N/A,,Clear,270,2013-08-02 05:35:00
1:55 AM,63.7,60.4,89,29.98,10.0,West,5.8,-,N/A,,Clear,260,2013-08-02 05:55:00
2:15 AM,63.5,60.1,89,29.98,10.0,West,4.6,-,N/A,,Clear,280,2013-08-02 06:15:00
2:35 AM,62.6,59.9,91,29.98,10.0,West,4.6,-,N/A,,Clear,270,2013-08-02 06:35:00
2:55 AM,61.0,59.2,94,29.97,10.0,Calm,Calm,-,N/A,,Clear,0,2013-08-02 06:55:00
3:15 AM,61.0,59.5,95,29.97,10.0,West,4.6,-,N/A,,Clear,260,2013-08-02 07:15:00
3:35 AM,60.6,59.0,94,29.97,10.0,West,3.5,-,N/A,,Clear,280,2013-08-02 07:35:00
3:55 AM,61.5,59.0,91,29.98,10.0,West,4.6,-,N/A,,Scattered Clouds,280,2013-08-02 07:55:00
4:15 AM,61.0,59.0,93,29.98,10.0,West,4.6,-,N/A,,Scattered Clouds,280,2013-08-02 08:15:00
4:35 AM,60.6,58.5,93,29.98,10.0,Calm,Calm,-,N/A,,Clear,0,2013-08-02 08:35:00
4:55 AM,59.2,58.3,97,29.98,10.0,West,3.5,-,N/A,,Clear,280,2013-08-02 08:55:00
5:15 AM,60.8,58.5,92,29.98,10.0,WNW,4.6,-,N/A,,Clear,290,2013-08-02 09:15:00
5:35 AM,59.5,57.7,94,29.98,10.0,West,3.5,-,N/A,,Clear,280,2013-08-02 09:35:00
5:55 AM,58.1,57.0,96,29.99,7.0,Calm,Calm,-,N/A,,Clear,0,2013-08-02 09:55:00
6:15 AM,58.1,57.4,97,30.01,10.0,West,3.5,-,N/A,,Clear,280,2013-08-02 10:15:00
6:35 AM,56.8,55.8,96,30.01,5.0,Calm,Calm,-,N/A,,Clear,0,2013-08-02 10:35:00
6:55 AM,57.0,56.8,99,30.01,3.0,Calm,Calm,-,N/A,,Clear,0,2013-08-02 10:55:00
7:15 AM,59.4,58.5,97,29.99,7.0,SSW,3.5,-,N/A,,Clear,210,2013-08-02 11:15:00
11:47 AM,73.4,57.2,57,30.03,10.0,South,4.6,-,N/A,,Scattered Clouds,190,2013-08-02 15:47:00
12:50 PM,75.2,59.0,57,30.03,10.0,WSW,9.2,-,N/A,,Scattered Clouds,240,2013-08-02 16:50:00
1:55 PM,75.2,60.8,61,30.03,10.0,SW,4.6,-,N/A,,Mostly Cloudy,230,2013-08-02 17:55:00
2:50 PM,75.2,62.6,65,30.02,10.0,WSW,5.8,-,N/A,,Scattered Clouds,240,2013-08-02 18:50:00
3:54 PM,75.2,62.6,65,30.01,10.0,South,4.6,-,N/A,,Mostly Cloudy,190,2013-08-02 19:54:00
4:50 PM,75.2,64.4,69,29.99,10.0,Calm,Calm,-,N/A,,Overcast,0,2013-08-02 20:50:00
5:50 PM,78.8,64.4,61,29.97,10.0,SSW,8.1,-,N/A,,Clear,210,2013-08-02 21:50:00
7:35 PM,74.8,63.5,68,29.95,10.0,South,8.1,-,N/A,,Clear,190,2013-08-02 23:35:00
7:55 PM,74.5,63.3,68,29.96,10.0,SSW,5.8,-,N/A,,Clear,200,2013-08-02 23:55:00
8:15 PM,74.1,63.5,69,29.97,10.0,SSW,6.9,-,N/A,,Clear,200,2013-08-03 00:15:00
8:35 PM,73.8,63.3,70,29.97,10.0,SSW,9.2,-,N/A,,Clear,210,2013-08-03 00:35:00
8:55 PM,73.8,63.0,69,29.98,10.0,SSW,9.2,-,N/A,,Scattered Clouds,210,2013-08-03 00:55:00
9:15 PM,73.6,62.8,69,29.98,10.0,SSW,10.4,18.4,N/A,,Mostly Cloudy,210,2013-08-03 01:15:00
9:35 PM,72.9,63.1,71,29.99,10.0,SW,9.2,-,N/A,Rain,Light Rain,220,2013-08-03 01:35:00
9:55 PM,71.6,63.9,76,29.99,10.0,SW,5.8,-,N/A,Rain,Light Rain,220,2013-08-03 01:55:00
10:15 PM,70.0,64.8,83,30.00,10.0,SSW,5.8,-,N/A,Rain,Light Rain,210,2013-08-03 02:15:00
10:35 PM,69.4,65.3,87,29.99,10.0,SW,3.5,-,N/A,,Mostly Cloudy,220,2013-08-03 02:35:00
10:55 PM,69.3,65.3,87,29.99,10.0,SSW,4.6,-,N/A,Rain,Light Rain,210,2013-08-03 02:55:00
11:15 PM,68.9,65.3,88,29.99,10.0,SSW,3.5,-,N/A,Rain,Light Rain,200,2013-08-03 03:15:00
11:35 PM,68.9,65.3,88,29.99,10.0,SSW,4.6,-,N/A,,Overcast,200,2013-08-03 03:35:00
11:55 PM,68.9,64.9,87,29.99,10.0,SSW,4.6,-,N/A,,Overcast,200,2013-08-03 03:55:00